When you browse on this site, cookies collect data to enhance your experience and personalize the content and advertising you see.
Visit our Privacy Policy to learn more. By continuing to use the site, you agree to this use of cookies and data.

Hourly Weather Omaruru

Today, 5 July, Sunday

Time Temperature Precipitation Wind Pressure Humidity
00:00 +12°C° 0 mm 4 mps 662 mmHg 27%
01:00 +11°C° 0 mm 4 mps 661 mmHg 27%
02:00 +10°C° 0 mm 4 mps 661 mmHg 29%
03:00 +8°C° 0 mm 4 mps 660 mmHg 31%
04:00 +7°C° 0 mm 4 mps 660 mmHg 32%
05:00 +8°C° 0 mm 3 mps 660 mmHg 34%
06:00 +7°C° 0 mm 3 mps 660 mmHg 36%
07:00 +7°C° 0 mm 3 mps 660 mmHg 38%
08:00 +11°C° 0 mm 4 mps 662 mmHg 30%
09:00 +16°C° 0 mm 5 mps 663 mmHg 23%
10:00 +21°C° 0 mm 6 mps 664 mmHg 15%
11:00 +23°C° 0 mm 6 mps 664 mmHg 13%
12:00 +26°C° 0 mm 6 mps 663 mmHg 10%
13:00 +28°C° 0 mm 5 mps 663 mmHg 8%
14:00 +28°C° 0 mm 5 mps 663 mmHg 8%
15:00 +28°C° 0 mm 5 mps 663 mmHg 8%
16:00 +28°C° 0 mm 5 mps 662 mmHg 8%
17:00 +25°C° 0 mm 5 mps 662 mmHg 10%
18:00 +21°C° 0 mm 4 mps 662 mmHg 13%
19:00 +17°C° 0 mm 4 mps 661 mmHg 16%
20:00 +15°C° 0 mm 4 mps 661 mmHg 18%
21:00 +14°C° 0 mm 4 mps 661 mmHg 21%
22:00 +13°C° 0 mm 4 mps 662 mmHg 24%
23:00 +13°C° 0 mm 4 mps 661 mmHg 25%

Tomorrow, 6 July, Monday

Time Temperature Precipitation Wind Pressure Humidity
00:00 +12°C° 0 mm 4 mps 661 mmHg 27%
01:00 +11°C° 0 mm 4 mps 661 mmHg 29%
02:00 +11°C° 0 mm 4 mps 661 mmHg 30%
03:00 +10°C° 0 mm 4 mps 660 mmHg 31%
04:00 +10°C° 0 mm 4 mps 660 mmHg 32%
05:00 +8°C° 0 mm 4 mps 660 mmHg 33%
06:00 +8°C° 0 mm 4 mps 660 mmHg 33%
07:00 +8°C° 0 mm 4 mps 660 mmHg 33%
08:00 +13°C° 0 mm 5 mps 661 mmHg 27%
09:00 +19°C° 0 mm 6 mps 663 mmHg 20%
10:00 +23°C° 0 mm 7 mps 664 mmHg 14%
11:00 +26°C° 0 mm 6 mps 663 mmHg 12%
12:00 +28°C° 0 mm 6 mps 663 mmHg 9%
13:00 +30°C° 0 mm 6 mps 663 mmHg 7%
14:00 +30°C° 0 mm 6 mps 663 mmHg 7%
15:00 +30°C° 0 mm 5 mps 662 mmHg 7%
16:00 +30°C° 0 mm 4 mps 662 mmHg 6%
17:00 +25°C° 0 mm 4 mps 661 mmHg 15%
18:00 +20°C° 0 mm 3 mps 660 mmHg 23%
19:00 +15°C° 0 mm 2 mps 659 mmHg 31%
20:00 +14°C° 0 mm 2 mps 659 mmHg 35%
21:00 +13°C° 0 mm 1 mps 659 mmHg 40%
22:00 +12°C° 0 mm 1 mps 659 mmHg 45%
23:00 +11°C° 0 mm 1 mps 659 mmHg 45%

Day after tomorrow, 7 July, Tuesday

Time Temperature Precipitation Wind Pressure Humidity
00:00 +11°C° 0 mm 1 mps 659 mmHg 46%
01:00 +10°C° 0 mm 1 mps 658 mmHg 47%
02:00 +10°C° 0 mm 1 mps 658 mmHg 49%
03:00 +9°C° 0 mm 1 mps 658 mmHg 52%
04:00 +8°C° 0 mm 1 mps 657 mmHg 55%
05:00 +9°C° 0 mm 1 mps 658 mmHg 47%
06:00 +10°C° 0 mm 1 mps 658 mmHg 39%
07:00 +10°C° 0 mm 1 mps 659 mmHg 31%
08:00 +15°C° 0 mm 2 mps 660 mmHg 25%
09:00 +20°C° 0 mm 2 mps 662 mmHg 18%
10:00 +25°C° 0 mm 2 mps 663 mmHg 11%
11:00 +26°C° 0 mm 2 mps 663 mmHg 10%
12:00 +27°C° 0 mm 2 mps 662 mmHg 9%
13:00 +28°C° 0 mm 2 mps 662 mmHg 8%
14:00 +28°C° 0 mm 2 mps 661 mmHg 7%
15:00 +29°C° 0 mm 3 mps 661 mmHg 7%
16:00 +29°C° 0 mm 3 mps 660 mmHg 7%
17:00 +25°C° 0 mm 3 mps 660 mmHg 9%
18:00 +21°C° 0 mm 4 mps 659 mmHg 11%
19:00 +18°C° 0 mm 4 mps 659 mmHg 13%
20:00 +16°C° 0 mm 3 mps 659 mmHg 17%
21:00 +14°C° 0 mm 3 mps 658 mmHg 21%
22:00 +14°C° 0 mm 2 mps 658 mmHg 25%
23:00 +13°C° 0 mm 2 mps 658 mmHg 28%

8 July, Wednesday

Time Temperature Precipitation Wind Pressure Humidity
00:00 +10°C° 0 mm 2 mps 658 mmHg 32%
01:00 +9°C° 0 mm 2 mps 657 mmHg 35%
02:00 +9°C° 0 mm 2 mps 657 mmHg 33%
03:00 +9°C° 0 mm 2 mps 657 mmHg 32%
04:00 +9°C° 0 mm 3 mps 657 mmHg 31%
05:00 +9°C° 0 mm 3 mps 658 mmHg 28%
06:00 +9°C° 0 mm 3 mps 658 mmHg 25%
07:00 +9°C° 0 mm 3 mps 658 mmHg 22%
08:00 +14°C° 0 mm 5 mps 660 mmHg 18%
09:00 +20°C° 0 mm 6 mps 661 mmHg 14%
10:00 +26°C° 0 mm 7 mps 662 mmHg 10%
11:00 +27°C° 0 mm 7 mps 662 mmHg 9%
12:00 +28°C° 0 mm 6 mps 662 mmHg 8%
13:00 +30°C° 0 mm 6 mps 661 mmHg 7%
14:00 +29°C° 0 mm 6 mps 661 mmHg 7%
15:00 +29°C° 0 mm 6 mps 661 mmHg 7%
16:00 +29°C° 0 mm 5 mps 660 mmHg 8%
17:00 +25°C° 0 mm 4 mps 660 mmHg 11%
18:00 +20°C° 0 mm 4 mps 659 mmHg 15%
19:00 +16°C° 0 mm 3 mps 659 mmHg 18%
20:00 +16°C° 0 mm 3 mps 659 mmHg 21%
21:00 +14°C° 0 mm 3 mps 659 mmHg 24%
22:00 +13°C° 0 mm 3 mps 659 mmHg 26%
23:00 +13°C° 0 mm 2 mps 658 mmHg 30%

9 July, Thursday

Time Temperature Precipitation Wind Pressure Humidity
00:00 +12°C° 0 mm 2 mps 658 mmHg 33%
01:00 +10°C° 0 mm 2 mps 658 mmHg 37%
02:00 +10°C° 0 mm 2 mps 658 mmHg 37%
03:00 +10°C° 0 mm 2 mps 658 mmHg 38%
04:00 +10°C° 0 mm 2 mps 657 mmHg 38%
05:00 +10°C° 0 mm 2 mps 658 mmHg 34%
06:00 +10°C° 0 mm 3 mps 658 mmHg 30%
07:00 +10°C° 0 mm 3 mps 659 mmHg 25%
08:00 +14°C° 0 mm 3 mps 660 mmHg 21%
09:00 +20°C° 0 mm 4 mps 661 mmHg 17%
10:00 +25°C° 0 mm 4 mps 662 mmHg 12%
11:00 +26°C° 0 mm 5 mps 662 mmHg 11%
12:00 +28°C° 0 mm 5 mps 661 mmHg 10%
13:00 +29°C° 0 mm 6 mps 661 mmHg 8%
14:00 +29°C° 0 mm 6 mps 661 mmHg 9%
15:00 +29°C° 0 mm 6 mps 660 mmHg 9%
16:00 +28°C° 0 mm 5 mps 660 mmHg 9%
17:00 +25°C° 0 mm 4 mps 659 mmHg 16%
18:00 +20°C° 0 mm 3 mps 659 mmHg 22%
19:00 +16°C° 0 mm 2 mps 658 mmHg 29%
20:00 +15°C° 0 mm 2 mps 658 mmHg 31%
21:00 +14°C° 0 mm 2 mps 658 mmHg 32%
22:00 +13°C° 0 mm 2 mps 658 mmHg 34%
23:00 +12°C° 0 mm 2 mps 657 mmHg 39%

10 July, Friday

Time Temperature Precipitation Wind Pressure Humidity
00:00 +10°C° 0 mm 2 mps 657 mmHg 45%
01:00 +10°C° 0 mm 1 mps 657 mmHg 51%
02:00 +9°C° 0 mm 1 mps 656 mmHg 53%
03:00 +8°C° 0 mm 1 mps 656 mmHg 56%
04:00 +8°C° 0 mm 1 mps 656 mmHg 59%
05:00 +8°C° 0 mm 1 mps 656 mmHg 55%
06:00 +8°C° 0 mm 1 mps 657 mmHg 50%
07:00 +6°C° 0 mm 0 mps 657 mmHg 46%
08:00 +12°C° 0 mm 1 mps 658 mmHg 36%
09:00 +16°C° 0 mm 2 mps 660 mmHg 26%
10:00 +20°C° 0 mm 3 mps 661 mmHg 17%
11:00 +21°C° 0 mm 4 mps 661 mmHg 15%
12:00 +23°C° 0 mm 6 mps 661 mmHg 13%
13:00 +24°C° 0 mm 7 mps 661 mmHg 12%
14:00 +23°C° 0 mm 7 mps 661 mmHg 13%
15:00 +22°C° 0 mm 6 mps 660 mmHg 14%
16:00 +22°C° 0 mm 6 mps 660 mmHg 15%
17:00 +16°C° 0 mm 5 mps 659 mmHg 30%
18:00 +12°C° 0 mm 3 mps 659 mmHg 44%
19:00 +7°C° 0 mm 2 mps 658 mmHg 59%
20:00 +6°C° 0 mm 2 mps 658 mmHg 63%
21:00 +6°C° 0 mm 2 mps 658 mmHg 68%
22:00 +5°C° 0 mm 2 mps 658 mmHg 73%
23:00 +4°C° 0 mm 2 mps 658 mmHg 75%
Show more